Terminal Aerodrome Forecast
Issued by NWS Mt. Holly, NJ

Home | Current Version | Previous Version | Text Only | Print | Product List | Glossary On
Versions: 1 2 3 4 5 6 7 8 9 10 11 12 13 14 15 16 17
000
FTUS41 KPHI 252326
TAFTTN
TAF
KTTN 252326Z 2600/2624 27007KT P6SM SCT200
     FM260400 30003KT P6SM BKN150
     FM260800 01005KT P6SM OVC100
     FM261300 04007KT P6SM BKN200
     FM261800 36007KT P6SM SCT050 BKN250
     FM262200 32005KT P6SM FEW050 SCT250=

USA.gov is the U.S. government's official web portal to all federal, state and local government web resources and services.